Regional Weather Roundup
Issued by NWS Upton, NY

Current Version | Previous Version | Graphics & Text | Print | Product List | Glossary Off
Versions: 1 2 3 4 5 6 7 8 9 10 11 12 13 14 15 16 17 18 19 20 21 22 23 24 25 26 27 28

000
ASUS41 KOKX 280904
RWROKX

REGIONAL WEATHER ROUNDUP
NATIONAL WEATHER SERVICE NEW YORK NY
500 AM EDT SUN AUG 28 2016

NOTE: "FAIR" INDICATES FEW OR NO CLOUDS BELOW 12,000 FEET WITH NO
SIGNIFICANT WEATHER AND/OR OBSTRUCTIONS TO VISIBILITY.

NYZ071-072-176-178-NJZ106-104-281000-
NEW YORK CITY METRO AREA

CITY           SKY/WX    TMP DP  RH WIND       PRES   REMARKS
Central Park   CLEAR     73  67  81 CALM      30.25S
LaGuardia APRT PTCLDY    75  69  81 S5        30.22R
Kennedy INTL   PTCLDY    74  67  78 E3        30.23R
Newark/Liberty PTCLDY    74  70  87 E3        30.22R
Bronx Bot Gard   N/A     70  66  88 E1        30.23S
Wall St Helipt SUNNY     75  72  88 CALM      30.23R
Teterboro      CLEAR     69  61  75 CALM      30.22R
$$

NYZ177-179-078>081-281000-
LONG ISLAND NEW YORK

CITY           SKY/WX    TMP DP  RH WIND       PRES   REMARKS
Farmingdale    CLEAR     69  66  90 NE3       30.23R
MacArthur/ISP  CLEAR     68  66  93 CALM      30.23R
Shirley        CLEAR     64  63  96 CALM      30.24R
Riverhead      NOT AVBL
Westhampton    CLEAR     59  56  89 CALM      30.26R
Southampton      N/A     68  66  94 S1        30.20S
Bridgehampton    N/A     64  63  94 CALM      30.23R
East Hampton   FAIR      60  59  95 CALM      30.24R
Montauk          N/A     68  63  84 CALM      30.26R
$$

NYZ052-065-067-281000-
HUDSON VALLEY

CITY           SKY/WX    TMP DP  RH WIND       PRES   REMARKS
White Plains   CLEAR     66  63  90 CALM      30.24R
Newburgh       CLEAR     64  63  94 CALM      30.25R
Montgomery     CLEAR     62  60  93 CALM      30.24R
Poughkeepsie   PTCLDY    62  61  96 CALM      30.22R
Albany         PTCLDY    66  63  90 CALM      30.21R
$$

NJZ001-105-106-008-010-013-015-019>022-104-281000-
NEW JERSEY

CITY           SKY/WX    TMP DP  RH WIND       PRES   REMARKS
Newark/Liberty PTCLDY    74  70  87 E3        30.22R
Teterboro      CLEAR     69  61  75 CALM      30.22R
Caldwell       CLEAR     64  61  90 CALM      30.24R
Morristown     CLEAR     57  57 100 CALM      30.24R FOG
Somerville     CLEAR     61  59  93 CALM      30.22R
Linden         FAIR      70  64  82 CALM      30.24R
Sussex         CLEAR     60  59  96 CALM      30.25R
Abdover          N/A     60  58  92 CALM      30.26R
Trenton        PTCLDY    65  62  90 NW5       30.22R
Millville      CLEAR     64  64 100 CALM      30.22R
Atlantic City  CLEAR     65  63  93 CALM      30.20S FOG
Wrightstown    CLEAR     64  63  99 CALM      30.20R
Toms River     PTCLDY    60  57  89 CALM      30.22R
Belmar         CLEAR     70  68  93 SE5       30.23R
$$

PAZ047>061-062-071-281000-
EASTERN PENNSYLVANIA

CITY           SKY/WX    TMP DP  RH WIND       PRES   REMARKS
Philadelphia   PTCLDY    71  68  90 CALM      30.23R
Allentown      CLEAR     63  59  87 CALM      30.24R
Scranton       CLEAR     64  60  87 CALM      30.24R
$$

CTZ002-004>006-009-010-012-RIZ004-006-007-MAZ004-011-015-281000-
SOUTHERN NEW ENGLAND
 IN CT

CITY           SKY/WX    TMP DP  RH WIND       PRES   REMARKS
Bradley INTL   PTCLDY    66  61  84 S5        30.25R
Hartford       CLEAR     69  65  86 CALM      30.24R
Danbury        CLEAR     59  58  96 CALM      30.26R
Wtrbury/Oxford   N/A     63  55  77 SE3       30.27S
Bridgeport     CLEAR     71  66  84 N3        30.24R
Meriden        PTCLDY    65  61  87 CALM      30.25R
New Haven      CLEAR     66  64  93 N5        30.25R
Chester        PTSUNNY   66  64  94 CALM      30.26R
Groton         CLEAR     66  63  90 N3        30.25R
Wilimantic     CLEAR     63  62  97 CALM      30.27R

 IN RI

CITY           SKY/WX    TMP DP  RH WIND       PRES   REMARKS
Providence     CLEAR     66  63  90 CALM      30.25S
Block Island   CLEAR     68  62  81 SE5       30.26R
Westerly       CLEAR     63  59  87 CALM      30.26R
 IN MA

CITY           SKY/WX    TMP DP  RH WIND       PRES   REMARKS
Boston         PTCLDY    68  65  90 SE3       30.26R
Worcester      CLEAR     64  62  93 SW7       30.28R
Westfield      PTCLDY    61  61 100 S3        30.25R
Provincetown   CLEAR     56  54  93 CALM      30.27R
Nantucket      CLEAR     60  59  96 CALM      30.25R
$$

ANZ330-335-338-340-345-350-353-355-281000-
COASTAL MARINE OBSERVATIONS


STATION/POSITION TIME  SKY/WX   TEMP    WIND        PRES    VSBY  WAVE
                                AIR SEA DIR/SP/G                  HT/PER
                 (UTC)          (F)     (DEG/KT/KT) (MB)    (MI)  (FT/S)
NY HARB ENTRANCE 0750            76 75  140/ 10/ 12 1022.5          2/ 9
20S FIRE ISLAND  0750            76 74  120/ 12/ 14 1022.3          3/ 9
GREAT SOUTH BAY  0815            75 79  140/  8/ 10   N/A
23 SSW MONTAUK P 0750            74 77  140/ 12/ 12 1023.6          2/10
15 E BARNEGAT LI 0830               76                N/A           3/ 5
HUDSON CANYON    0750            78 78              1022.3          3/ 5
KINGS POINT      0800            72 78              1023.1
EXECUTION ROCKS  0800            73     140/  2/  2   N/A
CENTRAL LI SOUND 0800            74 76  130/  8/ 10   N/A           1
EASTERN LI SOUND 0800            71 71   90/  6/  6   N/A
ROBBINS REEF     0812            74     140/  5/  6 1022.5
$$


>>>>>>>>>>>>>>>>>>>>>>>>>>>> KEY <<<<<<<<<<<<<<<<<<<<<<<<<<<
>                                                          <
>     SKY/WX - Sky Condition/Present Weather               <
>     TMP    - Temperature in Fahrenheit                   <
>     DP     - Dew Point in Fahrenheit                     <
>     RH     - Relative Humidity in Percent                <
>     WIND   - Direction (from) and Speed in MPH           <
>     PRES   - Mean Sea Level Pressure (inches of Hg)      <
>     WCI    - Wind Chill Index                            <
>     VSB    - VISIBILITY IN MILES                         <
>     HX     - HEAT INDEX                                  <
>     TC     - TEMPERATURE IN CELSIUS                      <
>     VRB    - VARIABLE WIND DIRECTION                     <
>                                                          <
>>>>>>>>>>>>>>>>>>>>>>>>>>>> KEY <<<<<<<<<<<<<<<<<<<<<<<<<<<




USA.gov is the U.S. government's official web portal to all federal, state and local government web resources and services.